Miscellaneous Local Product
Issued by NWS North Platte, NE

Home | Current Version | Previous Version | Text Only | Print | Product List | Glossary On
Versions: 1 2 3 4 5 6 7 8 9 10 11 12 13 14 15 16 17 18 19 20 21 22 23 24 25 26 27 28 29 30 31 32 33 34 35 36 37 38 39 40 41 42 43 44 45 46 47 48 49 50
000
AXUS43 KLBF 211810
MISLBF


WESTERN AND NORTH CENTRAL NEBRASKA HOURLY WEATHER ROUNDUP
NATIONAL WEATHER SERVICE NORTH PLATTE NE
1200 PM CST SAT JAN 21 2017

NOTE: "FAIR" INDICATES FEW OR NO CLOUDS BELOW 12,000 FEET WITH NO
SIGNIFICANT WEATHER AND/OR OBSTRUCTIONS TO VISIBILITY.

NOTE: STATIONS NOT REPORTING VARIABLES SUCH AS SKY/WEATHER OR
PRESSURE ARE PROVIDED BY RAWS AND APRS NETWORKS AND ARE NOT UNDER
NATIONAL WEATHER SERVICE QUALITY CONTROL.

...OBSERVATIONS IN AND NEAR THE EASTERN PANHANDLE OF NEBRASKA...

CITY           SKY/WX    TMP DP  RH WIND       PRES   REMARKS
PINE RIDGE     SUNNY     32  29  88 SW6       29.43S WCI  26
CHADRON        SUNNY     32  25  75 W6        29.43S WCI  26
ALLIANCE       SUNNY     38  31  76 SW6       29.41S WCI  33
SIDNEY         SUNNY     40  25  55 SW12      29.43S WCI  33
CRESCENT LAKE    N/A     40  29  65 W5          N/A
$$

...OBSERVATIONS IN NORTHERN NEBRASKA AND FAR SOUTHERN SOUTH DAKOTA...

CITY           SKY/WX    TMP DP  RH WIND       PRES   REMARKS
WINNER         FAIR      42  33  70 NW15      29.39S
VALENTINE      SUNNY     43  31  62 NW12      29.40S
THEDFORD       SUNNY     43  36  76 W5        29.42F
AINSWORTH      SUNNY     45  33  62 NW8       29.40F
O`NEILL        SUNNY     44  35  69 W10       29.41F
ORD            SUNNY     44  35  70 VRB3      29.41F
BROKEN BOW     SUNNY     44  38  79 S5        29.42F
VALENTINE NWR    N/A     43  34  70 NW6         N/A
BUTTE            N/A     38  33  83 W13         N/A  WCI  30
HALSEY           N/A     45  34  66 W3          N/A
SARGENT          N/A     44  37  77 NW3         N/A
CHAMBERS         N/A     46  33  61 S3          N/A
EWING            N/A     43  38  82 W9          N/A
$$

...OBSERVATIONS IN SOUTHWEST NEBRASKA AND FAR NORTHEAST COLORADO...

CITY           SKY/WX    TMP DP  RH WIND       PRES   REMARKS
HOLYOKE        FAIR      43  25  49 CALM      29.44S
IMPERIAL       SUNNY     41  26  55 W5        29.45R
OGALLALA       SUNNY     40  33  75 W7        29.45S
NORTH PLATTE   SUNNY     41  31  67 W5        29.44F
MCCOOK         SUNNY     43  33  68 W6        29.45S
LEXINGTON      SUNNY     42  35  75 NW6       29.43F
STAPLETON        N/A     42  36  78 CALM        N/A
GOTHENBURG       N/A     42  32  68 NW5         N/A
CALLAWAY         N/A     42  37  84 W5          N/A
$$

...OBSERVATIONS IN CENTRAL LINCOLN COUNTY AREA...

CITY           SKY/WX    TMP DP  RH WIND       PRES   REMARKS
N.P. AIRPORT   SUNNY     41  31  67 W5        29.44F
N.P. DOWNTOWN    N/A     39  33  78 CALM        N/A
N.P. SOUTHEAST   N/A     41  32  71 CALM        N/A
N.P. HILLCREST   N/A     37  33  85 W3          N/A
$$

...SOME OBSERVATIONS FROM AROUND THE REGION...

CITY           SKY/WX    TMP DP  RH WIND       PRES   REMARKS
LARAMIE        CLOUDY    18  10  71 S3        29.37R
CHEYENNE       SUNNY     36  19  50 E8        29.39R WCI  30
DENVER         CLOUDY    35  26  69 W6        29.38F WCI  30
AKRON          SUNNY     40  24  53 SE17      29.41S WCI  31
SCOTTSBLUFF    SUNNY     35  27  72 CALM      29.42F
RAPID CITY     SUNNY     38  31  76 S5        29.39S WCI  34
BISMARCK       CLOUDY    31  27  85 W6        29.38F WCI  25
PIERRE         FOG       27  26  96 N3        29.38F VSB 1
SIOUX FALLS    CLOUDY    32  31  96 W8        29.39S WCI  25
OMAHA          MOSUNNY   46  39  76 S3        29.44S
GRAND ISLAND   SUNNY     47  39  74 W5        29.44F
KANSAS CITY    PTSUNNY   45  40  82 SW10      29.52F
WICHITA        PTSUNNY   48  40  73 SE5       29.50F
OKLAHOMA CITY  CLOUDY    51  38  60 S6        29.50F
DALLAS         CLOUDY    65  55  70 SE15      29.46F
AMARILLO       MOSUNNY   54  37  52 SW15      29.39F
DODGE CITY     SUNNY     48  37  65 SE14      29.42F
HAYS           SUNNY     46  37  71 SE7       29.48F
GOODLAND       CLOUDY    41  35  79 SE7       29.42S
$$




USA.gov is the U.S. government's official web portal to all federal, state and local government web resources and services.